20040930,10883
20041001,10798
20041004,10995
20041005,11157
20041006,11258
20041007,11410
20041008,11402
20041012,11481
20041013,11736
20041014,12082
20041015,12385
20041018,12639
20041019,12931
20041020,12884
20041021,13031
20041022,13318
20041025,13350
20041026,13519
20041027,13857
20041028,14163
20041029,14412
20041101,14674
20041102,14944
20041104,14951
20041105,15245
20041108,14916
20041109,15040
20041110,15193
20041111,15562
20041112,15887
20041115,16018
20041116,16455
20041117,16470
20041118,16119
20041119,16297
20041122,16082
20041124,16574
20041125,16910
20041126,17025
20041129,16975
20041130,17482
20041201,17896
20041202,18256
20041203,18349
20041206,18484
20041207,18827
20041208,18657
20041209,19089
20041210,19545
20041213,19849
20041214,19859
20041215,19981
20041216,20018
20041217,19979
20041220,20247
20041221,20200
20041222,20573
20041224,20560
20041227,20734
20041228,20564
20041229,21157
20041230,21814
20050104,22134
20050105,22130
20050106,21373
20050107,21688
20050111,21588
20050112,21306
20050113,21081
20050114,21473
20050117,21652
20050118,21790
20050119,22023
20050120,22310
20050121,22352
20050124,22313
20050125,22175
20050126,22217
20050127,22219
20050128,22013
20050131,22304
20050201,22427
20050202,22587
20050203,22867
20050204,23006
20050207,23264
20050208,23364
20050209,23613
20050210,23723
20050214,23940
20050215,23970
20050216,23930
20050217,24267
20050218,24238
20050221,24056
20050222,24050
20050223,23252
20050224,23470
20050225,23681
20050228,24109
20050301,24175
20050302,24427
20050303,24400
20050304,24615
20050307,24801
20050308,25066
20050309,24807
20050310,24162
20050311,24374
20050314,24154
20050315,24662
20050316,24565
20050317,24403
20050318,24718
20050322,24656
20050323,24419
20050324,24431
20050325,24655
20050328,24719
20050329,24769
20050330,25018
20050331,25379
20050401,25283
20050404,25306
20050405,25287
20050406,25285
20050407,25489
20050408,25695
20050411,25480
20050412,25310
20050413,25664
20050414,25572
20050415,25637
20050418,25486
20050419,25541
20050420,25570
20050421,25421
20050422,25601
20050425,25419
20050426,25671
20050427,25811
20050428,26077
20050502,26010
20050506,25982
20050509,25857
20050510,26438
20050511,26309
20050512,26428
20050513,26415
20050516,26389
20050517,26479
20050518,26730
20050519,26886
20050520,27249
20050523,27350
20050524,27058
20050525,26622
20050526,26013
20050527,25923
20050530,25911
20050531,26039
20050601,26286
20050602,26504
20050603,26207
20050606,25977
20050607,25941
20050608,26007
20050609,26193
20050610,26142
20050613,26300
20050614,26461
20050615,26505
20050616,26279
20050617,25935
20050620,25786
20050621,25221
20050622,24654
20050623,24605
20050624,24442
20050627,24380
20050628,24280
20050629,24444
20050630,24498
20050701,24423
20050704,24660
20050705,24438
20050706,24770
20050707,24641
20050708,24565
20050711,24796
20050712,24781
20050713,24429
20050714,24369
20050715,23797
20050719,23595
20050720,23810
20050721,23767
20050722,22941
20050725,22997
20050726,22862
20050727,23166
20050728,23218
20050729,23475
20050801,23592
20050802,23467
20050803,23497
20050804,23325
20050805,22773
20050808,22129
20050809,21315
20050810,21294
20050811,21078
20050812,20917
20050815,20675
20050816,20681
20050817,20710
20050818,20587
20050819,20395
20050822,20246
20050823,20229
20050824,20243
20050825,20249
20050826,20340
20050829,19996
20050830,20056
20050831,20237
20050901,20609
20050902,20518
20050905,20310
20050906,20186
20050907,20697
20050908,20650
20050909,20648
20050912,20473
20050913,20557
20050914,20452
20050915,20408
20050916,20499
20050920,20483
20050921,20348
20050922,19899
20050926,20170
20050927,20222
20050928,20324
20050929,20216
20050930,20572
20051003,20975
20051004,21042
20051005,20608
20051006,20120
20051007,19968
20051011,19741
20051012,19597
20051013,19302
20051014,19340
20051017,19520
20051018,19718
20051019,19550
20051020,19708
20051021,19307
20051024,19521
20051025,19738
20051026,19437
20051027,19319
20051028,18979
20051031,19603
20051101,20027
20051102,19670
20051104,19876
20051107,19823
20051108,19866
20051109,19690
20051110,19925
20051111,20255
20051114,20375
20051115,20373
20051116,20317
20051117,20179
20051118,20449
20051121,20632
20051122,20676
20051124,20892
20051125,20967
20051128,21061
20051129,20584
20051130,20817
20051201,20784
20051202,21152
20051205,20976
20051206,20754
20051207,20619
20051208,20503
20051209,20589
20051212,20671
20051213,20448
20051214,20564
20051215,20260
20051216,19796
20051219,19816
20051220,19686
20051221,19766
20051222,19985
20051226,19848
20051227,19957
20051228,19983
20051229,20048
20051230,19917
20060104,19874
20060105,19896
20060106,20035
20060110,20108
20060111,20175
20060112,20075
20060113,20089
20060116,19658
20060117,19849
20060118,19857
20060119,19799
20060120,20073
20060123,19741
20060124,19697
20060125,19893
20060126,19963
20060127,20115
20060130,20472
20060131,20529
20060201,20593
20060202,20685
20060203,20630
20060206,20366
20060207,20504
20060208,20133
20060209,20138
20060210,20217
20060213,20011
20060214,19913
20060215,20115
20060216,20339
20060217,20466
20060220,20612
20060221,20583
20060222,20682
20060223,20721
20060224,20342
20060227,20178
20060228,20111
20060301,19959
20060302,20131
20060303,20140
20060306,19941
20060307,20412
20060308,20153
20060309,20200
20060310,20364
20060313,20647
20060314,20461
20060315,20447
20060316,20708
20060317,20716
20060320,20822
20060322,20354
20060323,20297
20060324,20521
20060327,20252
20060328,19922
20060329,20259
20060330,20517
20060331,20094
20060403,20239
20060404,19811
20060405,19454
20060406,19598
20060407,19520
20060410,19282
20060411,19102
20060412,18912
20060413,18977
20060414,18834
20060417,18646
20060418,18527
20060419,18759
20060420,18978
20060421,18947
20060424,18593
20060425,18232
20060426,18186
20060427,18081
20060428,18036
20060501,17957
20060502,17681
20060508,17580
20060509,17521
20060510,17478
20060511,17399
20060512,16876
20060515,16550
20060516,16768
20060517,16557
20060518,16480
20060519,16344
20060522,16504
20060523,16397
20060524,16299
20060525,16357
20060526,16525
20060529,16673
20060530,16668
20060531,16476
20060601,16666
20060602,16855
20060605,16815
20060606,16961
20060607,16962
20060608,17051
20060609,17089
20060612,17187
20060613,16945
20060614,16915
20060615,16834
20060616,17000
20060619,17028
20060620,16806
20060621,16427
20060622,16584
20060623,16643
20060626,16591
20060627,16699
20060628,16578
20060629,16748
20060630,16929
20060703,17193
20060704,17349
20060705,17310
20060706,17353
20060707,17358
20060710,17041
20060711,17235
20060712,17240
20060713,17382
20060714,17165
20060718,17140
20060719,17301
20060720,17521
20060721,17279
20060724,16925
20060725,17197
20060726,17182
20060727,17053
20060728,16849
20060731,16776
20060801,16633
20060802,16510
20060803,16494
20060804,16703
20060807,16697
20060808,16610
20060809,16457
20060810,16303
20060811,16296
20060814,16269
20060815,16376
20060816,16442
20060817,16426
20060818,16439
20060821,16375
20060822,16435
20060823,16543
20060824,16372
20060825,16475
20060828,16475
20060829,16605
20060830,16557
20060831,16662
20060901,16702
20060904,16477
20060905,16276
20060906,16471
20060907,16386
20060908,16137
20060911,16293
20060912,16457
20060913,16631
20060914,16683
20060915,16571
20060919,16646
20060920,16654
20060921,16562
20060922,16230
20060925,16222
20060926,16179
20060927,16257
20060928,16432
20060929,16394
20061002,16414
20061003,16221
20061004,16413
20061005,16463
20061006,16590
20061010,16705
20061011,16782
20061012,16764
20061013,16775
20061016,16896
20061017,16782
20061018,16684
20061019,16718
20061020,16589
20061023,16587
20061024,16689
20061025,16559
20061026,16535
20061027,16621
20061030,16237
20061031,16364
20061101,16225
20061102,16028
20061106,15649
20061107,15796
20061108,15588
20061109,15640
20061110,15594
20061113,15577
20061114,15650
20061115,15822
20061116,15877
20061117,15991
20061120,15916
20061121,16297
20061122,16504
20061124,16339
20061127,16210
20061128,15797
20061129,15791
20061130,16109
20061201,16141
20061204,15975
20061205,16074
20061206,15915
20061207,15861
20061208,15772
20061211,15928
20061212,15986
20061213,15905
20061214,15887
20061215,15909
20061218,15835
20061219,15657
20061220,15550
20061221,15675
20061222,15527
20061225,15450
20061226,15435
20061227,15577
20061228,15731
20061229,15790
20070104,15825
20070105,15700
20070109,15484
20070110,15741
20070111,15922
20070112,16177
20070115,16142
20070116,16192
20070117,16371
20070118,16296
20070119,16357
20070122,16528
20070123,16437
20070124,16493
20070125,16544
20070126,16586
20070129,16643
20070130,16713
20070131,16845
20070201,16805
20070202,16855
20070205,16866
20070206,16753
20070207,16909
20070208,16874
20070209,16776
20070213,16385
20070214,16557
20070215,16290
20070216,16250
20070219,16101
20070220,16103
20070221,16298
20070222,16161
20070223,16072
20070226,15719
20070227,15588
20070228,14741
20070301,14881
20070302,14590
20070305,14001
20070306,13497
20070307,14024
20070308,13759
20070309,14055
20070312,14287
20070313,14320
20070314,13767
20070315,13874
20070316,13987
20070319,13728
20070320,13883
20070322,14026
20070323,14057
20070326,13967
20070327,13807
20070328,13611
20070329,13441
20070330,13613
20070402,13732
20070403,13799
20070404,14016
20070405,13831
20070406,13859
20070409,13904
20070410,13877
20070411,13930
20070412,13710
20070413,13525
20070416,13614
20070417,13721
20070418,13741
20070419,13596
20070420,13531
20070423,13642
20070424,13696
20070425,13609
20070426,13594
20070427,13698
20070501,13473
20070502,13417
20070507,13432
20070508,13445
20070509,13318
20070510,13440
20070511,13198
20070514,13380
20070515,13302
20070516,13059
20070517,13003
20070518,12811
20070521,12658
20070522,12768
20070523,12920
20070524,12796
20070525,12533
20070528,12641
20070529,12651
20070530,13001
20070531,13235
20070601,13158
20070604,13173
20070605,13119
20070606,12888
20070607,12771
20070608,12455
20070611,12610
20070612,12441
20070613,12174
20070614,12467
20070615,12342
20070618,12484
20070619,12276
20070620,12264
20070621,12001
20070622,12018
20070625,11995
20070626,11772
20070627,11720
20070628,11932
20070629,11848
20070702,11779
20070703,11950
20070704,11934
20070705,11920
20070706,12064
20070709,12086
20070710,12016
20070711,11607
20070712,11604
20070713,11764
20070717,11670
20070718,11603
20070719,11568
20070720,11610
20070723,11282
20070724,11046
20070725,10724
20070726,10737
20070727,10361
20070730,10001
20070731,10083
20070801,10056
20070802,10139
20070803,10264
20070806,9762
20070807,10063
20070808,10116
20070809,10549
20070810,10272
20070813,10076
20070814,10031
20070815,9683
20070816,9466
20070817,9478
20070820,9771
20070821,9923
20070822,9974
20070823,10176
20070824,10044
20070827,10043
20070828,9733
20070829,9338
20070830,9669
20070831,9739
20070903,9848
20070904,9839
20070905,9909
20070906,9590
20070907,9623
20070910,9226
20070911,9211
20070912,9393
20070913,9365
20070914,9544
20070918,9535
20070919,9797
20070920,9929
20070921,9652
20070925,9677
20070926,9497
20070927,9578
20070928,9601
20071001,9461
20071002,9667
20071003,9803
20071004,9833
20071005,9837
20071009,9973
20071010,10015
20071011,9981
20071012,9941
20071015,9875
20071016,9661
20071017,9513
20071018,9452
20071019,9334
20071022,8910
20071023,9028
20071024,9082
20071025,8929
20071026,8908
20071029,8965
20071030,8907
20071031,8958
20071101,9092
20071102,8672
20071105,8479
20071106,8376
20071107,8477
20071108,8092
20071109,8109
20071112,7934
20071113,7875
20071114,8238
20071115,8107
20071116,7992
20071119,7900
20071120,7605
20071121,7451
20071122,7344
20071126,7461
20071127,7045
20071128,7220
20071129,7543
20071130,7452
20071203,7534
20071204,7430
20071205,7163
20071206,7419
20071207,7596
20071210,7580
20071211,7725
20071212,7301
20071213,7324
20071214,7262
20071217,7079
20071218,6853
20071219,6892
20071220,6937
20071221,6899
20071225,7296
20071226,7288
20071227,7198
20071228,6989
20080104,6408
20080107,6133
20080108,6219
20080109,6008
20080110,6155
20080111,6220
20080115,6096
20080116,5876
20080117,5963
20080118,5836
20080121,5750
20080122,5689
20080123,5919
20080124,6337
20080125,6223
20080128,6135
20080129,6291
20080130,6234
20080131,6064
20080201,6141
20080204,6324
20080205,6244
20080206,6018
20080207,5912
20080208,6086
20080212,5767
20080213,5900
20080214,5985
20080215,5856
20080218,5906
20080219,5907
20080220,5831
20080221,5908
20080222,5761
20080225,5840
20080226,6000
20080227,5955
20080228,5863
20080229,5693
20080303,5508
20080304,5562
20080305,5490
20080306,5509
20080307,5240
20080310,5287
20080311,5173
20080312,5538
20080313,5354
20080314,5366
20080317,5122
20080318,5096
20080319,5380
20080321,5493
20080324,5473
20080325,5598
20080326,5554
20080327,5390
20080328,5339
20080331,5302
20080401,5290
20080402,5634
20080403,5691
20080404,5806
20080407,5687
20080408,5700
20080409,5622
20080410,5431
20080411,5492
20080414,5390
20080415,5348
20080416,5443
20080417,5627
20080418,5678
20080421,5726
20080422,5608
20080423,5555
20080424,5655
20080425,5822
20080428,5840
20080430,5706
20080501,5587
20080502,5755
20080507,5748
20080508,5583
20080509,5508
20080512,5415
20080513,5570
20080514,5615
20080515,5655
20080516,5680
20080519,5597
20080520,5603
20080521,5477
20080522,5319
20080523,5336
20080526,5226
20080527,5204
20080528,5314
20080529,5347
20080530,5405
20080602,5311
20080603,5184
20080604,5260
20080605,5281
20080606,5419
20080609,5162
20080610,5125
20080611,5181
20080612,5071
20080613,5157
20080616,5254
20080617,5301
20080618,5121
20080619,5031
20080620,5152
20080623,4992
20080624,4875
20080625,4875
20080626,4946
20080627,4732
20080630,4665
20080701,4654
20080702,4654
20080703,4572
20080704,4555
20080707,4531
20080708,4451
20080709,4743
20080710,4407
20080711,4502
20080714,4487
20080715,4306
20080716,4230
20080717,4482
20080718,4604
20080722,4623
20080723,4781
20080724,4911
20080725,4591
20080728,4703
20080729,4553
20080730,4807
20080731,4794
20080801,4717
20080804,4706
20080805,4649
20080806,4857
20080807,4859
20080808,4731
20080811,4908
20080812,5012
20080813,4836
20080814,4798
20080815,4876
20080818,4857
20080819,4760
20080820,4644
20080821,4630
20080822,4515
20080825,4710
20080826,4524
20080827,4561
20080828,4566
20080829,4680
20080901,4611
20080902,4611
20080903,4655
20080904,4680
20080905,4456
20080908,4506
20080909,4654
20080910,4444
20080911,4470
20080912,4481
20080916,4053
20080917,4309
20080918,4020
20080919,4441
20080922,4559
20080924,4103
20080925,4028
20080926,4106
20080929,4239
20080930,3826
20081001,4144
20081002,4063
20081003,3778
20081006,3581
20081007,3365
20081008,3140
20081009,3060
20081010,2741
20081014,3305
20081015,3066
20081016,2664
20081017,2831
20081020,2821
20081021,2840
20081022,2720
20081023,2472
20081024,2442
20081027,2231
20081028,2094
20081029,2496
20081030,2440
20081031,2524
20081104,2599
20081105,2713
20081106,2422
20081107,2300
20081110,2478
20081111,2248
20081112,2208
20081113,2052
20081114,2293
20081117,2048
20081118,1983
20081119,1978
20081120,1743
20081121,1597
20081125,1996
20081126,1983
20081127,2072
20081128,2075
20081201,2036
20081202,1653
20081203,1833
20081204,1916
20081205,1826
20081208,2003
20081209,2177
20081210,1999
20081211,2143
20081212,1812
20081215,1976
20081216,1884
20081217,2090
20081218,2079
20081219,1971
20081222,2077
20081224,2024
20081225,2020
20081226,2025
20081229,2048
20081230,1947
20090105,2040
20090106,2011
20090107,2110
20090108,2012
20090109,1965
20090113,1742
20090114,1790
20090115,1712
20090116,1787
20090119,1877
20090120,1866
20090121,1659
20090122,1791
20090123,1716
20090126,1759
20090127,1762
20090128,1777
20090129,1945
20090130,1773
20090202,1721
20090203,1750
20090204,1731
20090205,1675
20090206,1669
20090209,1796
20090210,1795
20090212,1663
20090213,1641
20090216,1564
20090217,1563
20090218,1475
20090219,1515
20090220,1457
20090223,1519
20090224,1429
20090225,1575
20090226,1547
20090227,1483
20090302,1447
20090303,1350
20090304,1384
20090305,1403
20090306,1306
20090309,1287
20090310,1325
20090311,1477
20090312,1439
20090313,1549
20090316,1530
20090317,1419
20090318,1526
20090319,1558
20090323,1365
20090324,1594
20090325,1474
20090326,1485
20090327,1539
20090330,1469
20090331,1384
20090401,1495
20090402,1477
20090403,1594
20090406,1709
20090407,1686
20090408,1545
20090409,1565
20090410,1772
20090413,1766
20090414,1786
20090415,1614
20090416,1751
20090417,1819
20090420,1834
20090421,1632
20090422,1802
20090423,1726
20090424,1801
20090427,1875
20090428,1762
20090430,1870
20090501,1880
20090507,1893
20090508,1800
20090511,1917
20090512,1816
20090513,1780
20090514,1670
20090515,1736
20090518,1651
20090519,1813
20090520,1773
20090521,1730
20090522,1728
20090525,1699
20090526,1703
20090527,1801
20090528,1752
20090529,1798
20090601,1844
20090602,1955
20090603,1906
20090604,1920
20090605,1969
20090608,1982
20090609,1983
20090610,1956
20090611,1943
20090612,1910
20090615,1990
20090616,1888
20090617,1856
20090618,1815
20090619,1859
20090622,1885
20090623,1793
20090624,1817
20090625,1869
20090626,1907
20090629,1948
20090630,2007
20090701,2086
20090702,2118
20090703,2038
20090706,2018
20090707,2074
20090708,1985
20090709,1945
20090710,1955
20090713,1956
20090714,2040
20090715,2073
20090716,2171
20090717,2204
20090721,2272
20090722,2276
20090723,2315
20090724,2466
20090727,2541
20090728,2670
20090729,2767
20090730,2876
20090731,3188
20090803,3583
20090804,3664
20090805,3843
20090806,3954
20090807,4038
20090810,4348
20090811,4294
20090812,4251
20090813,4380
20090814,4404
20090817,4409
20090818,4334
20090819,4467
20090820,4574
20090821,4843
20090824,5148
20090825,5280
20090826,5522
20090827,5831
20090828,6273
20090831,6992
20090901,7995
20090902,7710
20090903,7589
20090904,7836
20090907,7923
20090908,7975
20090909,8173
20090910,8350
20090911,8448
20090914,8382
20090915,8810
20090916,9130
20090917,9541
20090918,9615
20090924,9609
20090925,9424
20090928,9348
20090929,9996
20090930,9892
20091001,9990
20091002,9600
20091005,9481
20091006,9657
20091007,9609
20091008,9588
20091009,9814
20091013,10043
20091014,9949
20091015,10280
20091016,10395
20091019,10263
20091020,10521
20091021,10478
20091022,10479
20091023,10917
20091026,10980
20091027,11171
20091028,11148
20091029,10878
20091030,11638
20091102,11716
20091104,11921
20091105,11609
20091106,11886
20091109,11643
20091110,12152
20091111,11998
20091112,12314
20091113,12180
20091116,12227
20091117,12536
20091118,12388
20091119,12692
20091120,12389
20091124,12517
20091125,12417
20091126,12363
20091127,12326
20091130,12076
20091201,13071
20091202,13268
20091203,13628
20091204,13564
20091207,14113
20091208,13741
20091209,13597
20091210,13500
20091211,13505
20091214,13782
20091215,13906
20091216,13991
20091217,14163
20091218,14072
20091221,14534
20091222,14896
20091224,15411
20091225,15783
20091228,16010
20091229,16076
20091230,16420
20100104,16599
20100105,16225
20100106,16153
20100107,16266
20100108,16592
20100112,16377
20100113,16061
20100114,16465
20100115,16444
20100118,16397
20100119,16460
20100120,16875
20100121,16905
20100122,16379
20100125,16055
20100126,16398
20100127,16308
20100128,16776
20100129,16745
20100201,17342
20100202,17677
20100203,17839
20100204,17647
20100205,16670
20100208,16920
20100209,16511
20100210,16591
20100212,16713
20100215,16981
20100216,17031
20100217,17513
20100218,17829
20100219,18205
20100222,18257
20100223,18313
20100224,18014
20100225,18137
20100226,18113
20100301,18137
20100302,18250
20100303,18083
20100304,17977
20100305,18035
20100308,18634
20100309,18768
20100310,18787
20100311,18891
20100312,19022
20100315,19122
20100316,19012
20100317,19457
20100318,19600
20100319,19597
20100323,19479
20100324,19388
20100325,19754
20100326,19968
20100329,19806
20100330,19727
20100331,19988
20100401,19995
20100402,20019
20100405,19896
20100406,20327
20100407,20630
20100408,20142
20100409,20090
20100412,20270
20100413,20009
20100414,20476
20100415,20441
20100416,19914
20100419,19362
20100420,19576
20100421,19959
20100422,20295
20100423,20696
20100426,21227
20100427,21369
20100428,20693
20100430,22008
20100506,21287
20100507,20017
20100510,19862
20100511,21234
20100512,21276
20100513,21627
20100514,21200
20100517,20486
20100518,20602
20100519,20017
20100520,19991
20100521,18886
20100524,19610
20100525,19335
20100526,19675
20100527,19623
20100528,20744
20100531,20680
20100601,20785
20100602,20463
20100603,20960
20100604,20954
20100607,19274
20100608,19318
20100609,19612
20100610,19756
20100611,20651
20100614,20887
20100615,21149
20100616,21605
20100617,21345
20100618,21209
20100621,20918
20100622,20844
20100623,20076
20100624,20123
20100625,19796
20100628,20405
20100629,20406
20100630,19962
20100701,20227
20100702,19966
20100705,19432
20100706,19354
20100707,19036
20100708,20005
20100709,20338
20100712,20722
20100713,20644
20100714,21180
20100715,20895
20100716,20749
20100720,20323
20100721,20721
20100722,20196
20100723,21058
20100726,21380
20100727,21789
20100728,22105
20100729,22197
20100730,21938
20100802,22327
20100803,22944
20100804,22483
20100805,22489
20100806,22122
20100809,21972
20100810,22581
20100811,22505
20100812,22417
20100813,22860
20100816,23442
20100817,24220
20100818,25805
20100819,26757
20100820,27381
20100823,28847
20100824,31003
20100825,33372
20100826,36497
20100827,39366
20100830,43982
20100831,48140
20100901,56624
20100902,58434
20100903,59289
20100906,59879
20100907,60248
20100908,59064
20100909,60313
20100910,60565
20100913,61827
20100914,63564
20100915,65661
20100916,68162
20100917,69707
20100921,73012
20100922,73812
20100924,73532
20100927,78467
20100928,80701
20100929,84746
20100930,89216
20101001,98686
20101004,99070
20101005,98845
20101006,100257
20101007,99921
20101008,100236
20101012,100449
20101013,101269
20101014,103200
20101015,104168
20101018,104852
20101019,107968
20101020,108983
20101021,112925
20101022,115130
20101025,116901
20101026,119584
20101027,122508
20101028,126710
20101029,130976
20101101,139856
20101102,141158
20101104,142731
20101105,144387
20101108,146146
20101109,145838
20101110,142227
20101111,145248
20101112,145846
20101115,144306
20101116,146592
20101117,142941
20101118,146444
20101119,149445
20101122,152418
20101124,153191
20101125,159391
20101126,161121
20101129,161377
20101130,168516
20101201,171677
20101202,173673
20101203,175828
20101206,171614
20101207,171565
20101208,174801
20101209,173196
20101210,171419
20101213,174116
20101214,174810
20101215,174629
20101216,175468
20101217,177525
20101220,181350
20101221,185019
20101222,189263
20101224,191092
20101227,193363
20101228,194847
20101229,200565
20101230,201589
20110104,209064
20110105,203114
20110106,207914
20110107,206665
20110111,205477
20110112,206380
20110113,207016
20110114,207312
20110117,209438
20110118,209956
20110119,211291
20110120,209680
20110121,213250
20110124,214531
20110125,217706
20110126,222011
20110127,224748
20110128,233467
20110131,231286
20110201,242831
20110202,242377
20110203,242954
20110204,244899
20110207,241715
20110208,245140
20110209,246793
20110210,248751
20110214,254500
20110215,256554
20110216,258501
20110217,261168
20110218,262776
20110221,266274
20110222,269214
20110223,266997
20110224,270307
20110225,271698
20110228,283547
20110301,298953
20110302,291981
20110303,291346
20110304,300104
20110307,296223
20110308,296228
20110309,304383
20110310,305851
20110311,304402
20110314,307136
20110315,307542
20110316,305001
20110317,296864
20110318,309429
20110322,318261
20110323,319251
20110324,319074
20110325,324363
20110328,332490
20110329,337627
20110330,348280
20110331,362825
20110401,378676
20110404,383385
20110405,383248
20110406,389385
20110407,392561
20110408,388730
20110411,389143
20110412,391519
20110413,394825
20110414,399172
20110415,411139
20110418,420830
20110419,422159
20110420,433302
20110421,441196
20110422,449399
20110425,460019
20110426,460038
20110427,473979
20110428,488483
20110502,497836
20110506,484056
20110509,484727
20110510,488260
20110511,503089
20110512,502019
20110513,506106
20110516,503096
20110517,507778
20110518,514081
20110519,523740
20110520,529187